EW5790 Weather Reports


Display with metric or nautical units.
time (UTC)temp
F
wind
direction
speed
MPH
gust
MPH
rain 1hr
in
rain 24hr
in
rain mn
in
humidity
%
barometer
mb
20260831040012 72 126 0.0 0.0 0.00 0.00 0.00 1 1018.5
20260831034511 72 126 0.0 0.0 0.00 0.00 0.00 1 1018.5
20260831033016 72 126 0.0 0.0 0.00 0.00 0.00 1 1018.6
20260831031514 72 126 0.0 0.0 0.00 0.00 0.00 1 1018.5
20260831030010 72 126 0.0 0.0 0.00 0.00 0.00 1 1018.3
20260831024509 73 126 0.0 0.0 0.00 0.00 0.00 1 1018.3
20260831023006 73 126 0.0 0.0 0.00 0.00 0.00 1 1018.2
20260831021503 73 126 0.0 0.0 0.00 0.00 0.00 1 1018.1
20260831020112 74 126 0.0 0.0 0.00 0.00 0.00 1 1018.1
20260831014556 74 126 0.0 0.0 0.00 0.00 0.00 1 1017.8
20260831013058 75 126 0.0 0.0 0.00 0.00 0.00 1 1017.6
20260831011547 76 126 0.0 0.0 0.00 0.00 0.00 8 1017.5
20260831010044 77 126 0.0 0.0 0.00 0.00 0.00 22 1017.3
20260831004540 78 126 0.0 0.0 0.00 0.00 0.00 29 1017.0
20260831003038 79 126 0.0 0.0 0.00 0.00 0.00 42 1016.9
20260831001529 81 126 0.0 0.0 0.00 0.00 0.00 50 1017.0
20260831000034 83 126 0.0 0.0 0.00 0.00 0.00 58 1017.1
20260830234533 85 126 0.0 0.0 0.00 0.00 0.00 64 1017.0
20260830233015 86 126 0.0 0.0 0.00 0.00 0.00 64 1017.0
20260830231514 87 287 0.0 0.0 0.00 0.00 0.00 64 1017.0
20260830230006 87 287 0.0 0.0 0.00 0.00 0.00 64 1017.0
20260830224503 87 287 0.0 0.0 0.00 0.00 0.00 64 1016.9
20260830223059 89 287 0.0 0.0 0.00 0.00 0.00 63 1016.8
20260830221554 91 287 0.0 0.0 0.00 0.00 0.00 61 1016.8
20260830220052 91 288 0.0 0.0 0.00 0.00 0.00 56 1016.8
20260830214547 92 221 0.0 0.0 0.00 0.00 0.00 52 1016.8
20260830213040 93 270 0.0 0.0 0.00 0.00 0.00 47 1016.9
20260830211536 93 267 0.0 0.0 0.00 0.00 0.00 49 1017.0
20260830210034 92 244 0.0 0.0 0.00 0.00 0.00 47 1017.0
20260830204527 93 76 0.0 0.0 0.00 0.00 0.00 47 1017.0
20260830144501 84 254 0.0 0.0 0.00 0.00 0.00 60 1020.3
20260830143057 83 271 0.0 0.0 0.00 0.00 0.00 56 1020.3
20260830141553 82 321 0.0 0.0 0.00 0.00 0.00 51 1020.4
20260830140056 80 247 0.0 0.0 0.00 0.00 0.00 35 1020.3
20260830134549 78 84 0.0 0.0 0.00 0.00 0.00 14 1020.2
20260830133039 76 248 0.0 0.0 0.00 0.00 0.00 1 1020.1
20260830131535 75 132 0.0 0.0 0.00 0.00 0.00 1 1020.1
20260830130030 72 327 0.0 0.0 0.00 0.00 0.00 1 1020.1
20260830124533 70 327 0.0 0.0 0.00 0.00 0.00 1 1020.1
20260830123021 69 327 0.0 0.0 0.00 0.00 0.00 1 1020.0
20260830121516 67 327 0.0 0.0 0.00 0.00 0.00 1 1019.7
20260830120014 66 327 0.0 0.0 0.00 0.00 0.00 1 1019.6
20260830114508 65 327 0.0 0.0 0.00 0.00 0.00 1 1019.5
20260830113004 65 327 0.0 0.0 0.00 0.00 0.00 1 1019.5
20260830111559 65 327 0.0 0.0 0.00 0.00 0.00 1 1019.3
20260830110054 65 327 0.0 0.0 0.00 0.00 0.00 1 1019.2
20260830104551 65 327 0.0 0.0 0.00 0.00 0.00 1 1019.2
20260830103046 65 327 0.0 0.0 0.00 0.00 0.00 1 1019.2
20260830101541 65 327 0.0 0.0 0.00 0.00 0.00 1 1019.3
20260830100037 65 327 0.0 0.0 0.00 0.00 0.00 1 1019.2
20260830094533 65 327 0.0 0.0 0.00 0.00 0.00 1 1019.2
20260830093038 65 327 0.0 0.0 0.00 0.00 0.00 1 1019.2
20260830091524 66 327 0.0 0.0 0.00 0.00 0.00 1 1019.1
20260830090018 66 327 0.0 0.0 0.00 0.00 0.00 1 1019.1
20260830084514 66 327 0.0 0.0 0.00 0.00 0.00 1 1019.1
20260830083011 66 327 0.0 0.0 0.00 0.00 0.00 1 1019.0
20260830081506 66 327 0.0 0.0 0.00 0.00 0.00 1 1018.9
20260830080001 66 327 0.0 0.0 0.00 0.00 0.00 1 1019.0
20260830074600 66 327 0.0 0.0 0.00 0.00 0.00 1 1018.9
20260830073053 66 327 0.0 0.0 0.00 0.00 0.00 1 1019.0
20260830071619 66 327 0.0 0.0 0.00 0.00 0.00 1 1018.9
20260830070043 67 327 0.0 0.0 0.00 0.00 0.00 1 1019.0
20260830064539 67 327 0.0 0.0 0.00 0.00 0.00 1 1019.0
20260830063037 67 327 0.0 0.0 0.00 0.00 0.00 1 1019.0
20260830061530 67 327 0.0 0.0 0.00 0.00 0.00 1 1019.0
20260830060026 67 327 0.0 0.0 0.00 0.00 0.00 1 1019.2
20260830054521 67 327 0.0 0.0 0.00 0.00 0.00 1 1019.3
20260830053017 67 327 0.0 0.0 0.00 0.00 0.00 1 1019.2
20260830051517 67 327 0.0 0.0 0.00 0.00 0.00 1 1019.2
20260830050010 68 327 0.0 0.0 0.00 0.00 0.00 1 1019.2
20260830044504 68 327 0.0 0.0 0.00 0.00 0.00 1 1019.1
20260830043100 68 327 0.0 0.0 0.00 0.00 0.00 1 1018.9
20260830041559 68 327 0.0 0.0 0.00 0.00 0.00 1 1019.0